Voltar ao catálogo

FENGYUN 1C DEB

AtivoSSO
NORAD 37715·DEBRIS·🇨🇳 China

Lançado May 10, 1999 de Taiyuan Satellite Launch Center

Loading…

Próximas Passagens (próximas 24 horas)

TLE

EnvelhecendoSource: Space-Track

Época: Sep 7, 2026, 18:42 UTC

1 37715U 99025EMG 26250.77931524  .00000513  00000-0  38509-3 0  9998
2 37715  98.9569 256.0374 0114917  92.9688  82.2070 13.95769455615569

Acompanhe FENGYUN 1C DEB em tempo real com AllMySat

Download on the App Store